GW3691 Weather Reports


Display with metric or nautical units.
time (UTC)temp
F
wind
direction
speed
MPH
gust
MPH
rain 1hr
in
rain 24hr
in
rain mn
in
humidity
%
barometer
mb
20260902210806 83 150 0.0 0.0 0.00 0.03 0.03 90 1018.9
20260902210301 83 148 0.0 1.0 0.00 0.03 0.03 89 1018.8
20260902205759 83 135 0.0 0.0 0.00 0.03 0.03 89 1018.6
20260902205254 82 146 0.0 0.0 0.00 0.03 0.03 88 1018.8
20260902204749 82 150 0.0 0.0 0.05 0.03 0.03 88 1018.9
20260902204244 82 139 1.0 2.0 0.05 0.03 0.03 86 1019.0
20260902203745 84 138 3.0 3.0 0.00 0.02 0.02 84 1018.9
20260902203245 84 96 2.0 3.0 0.00 0.02 0.02 82 1019.2
20260902202740 85 137 1.0 1.0 0.00 0.02 0.02 82 1018.8
20260902202236 85 135 0.0 1.0 0.00 0.02 0.02 82 1019.0
20260902201733 85 136 2.0 2.0 0.00 0.02 0.02 82 1018.8
20260902201231 85 91 1.0 2.0 0.00 0.02 0.02 81 1018.7
20260902200727 86 72 1.0 1.0 0.00 0.02 0.02 81 1018.4
20260902200223 85 109 2.0 2.0 0.00 0.02 0.02 80 1018.9
20260902195718 86 137 2.0 2.0 0.00 0.02 0.02 80 1019.0
20260902195217 86 118 4.0 7.0 0.00 0.02 0.02 80 1019.0
20260902194717 85 87 2.0 3.0 0.00 0.02 0.02 81 1019.1
20260902194212 86 156 1.0 1.0 0.00 0.02 0.02 80 1018.9
20260902193707 87 162 1.0 1.0 0.00 0.02 0.02 79 1018.8
20260902193203 87 82 3.0 3.0 0.00 0.02 0.02 80 1018.8
20260902192701 88 81 3.0 5.0 0.00 0.02 0.02 78 1018.8
20260902192200 87 149 1.0 1.0 0.00 0.02 0.02 80 1019.1
20260902191655 87 147 0.0 1.0 0.00 0.02 0.02 81 1018.8
20260902191149 88 62 4.0 6.0 0.00 0.02 0.02 79 1019.0
20260902190645 87 94 0.0 0.0 0.00 0.02 0.02 82 1018.9
20260902190140 85 138 1.0 1.0 0.00 0.02 0.02 83 1019.0
20260902185636 85 117 1.0 1.0 0.00 0.02 0.02 84 1019.1
20260902185131 85 134 0.0 1.0 0.00 0.02 0.02 86 1019.2
20260902184626 84 143 0.0 1.0 0.00 0.02 0.02 87 1019.0
20260902184122 84 139 1.0 1.0 0.00 0.02 0.02 86 1019.1
20260902183618 83 145 0.0 1.0 0.00 0.02 0.02 87 1019.4
20260902183114 83 125 1.0 1.0 0.00 0.02 0.02 88 1019.3
20260902182610 85 121 2.0 5.0 0.00 0.02 0.02 86 1019.4
20260902182106 88 97 7.0 8.0 0.00 0.02 0.02 80 1019.4
20260902181602 89 121 2.0 2.0 0.00 0.02 0.02 73 1019.3
20260902181101 89 129 3.0 3.0 0.00 0.02 0.02 75 1019.1
20260902180601 90 115 3.0 3.0 0.00 0.02 0.02 73 1019.2
20260902180057 90 55 4.0 6.0 0.00 0.02 0.02 73 1019.6
20260902175556 89 80 5.0 6.0 0.00 0.02 0.02 75 1019.6
20260902175053 89 173 2.0 3.0 0.00 0.02 0.02 76 1019.5
20260902174548 88 121 1.0 2.0 0.00 0.02 0.02 76 1019.7
20260902174044 88 89 0.0 0.0 0.00 0.02 0.02 76 1019.6
20260902173543 89 99 3.0 3.0 0.00 0.02 0.02 76 1019.7
20260902173039 90 166 1.0 1.0 0.00 0.02 0.02 74 1019.7
20260902172533 90 151 1.0 1.0 0.00 0.02 0.02 75 1019.9
20260902172028 89 158 3.0 5.0 0.00 0.02 0.02 74 1019.9
20260902171524 89 182 2.0 2.0 0.00 0.02 0.02 74 1019.9
20260902171019 89 116 1.0 2.0 0.00 0.02 0.02 76 1020.0
20260902170514 89 142 1.0 3.0 0.00 0.02 0.02 74 1020.1
20260902170010 89 140 0.0 1.0 0.00 0.02 0.02 76 1020.0
20260902165509 91 140 1.0 1.0 0.00 0.02 0.02 73 1020.0
20260902165004 90 173 2.0 2.0 0.00 0.02 0.02 75 1020.0
20260902164459 90 1 2.0 3.0 0.00 0.02 0.02 74 1020.0
20260902163958 89 134 2.0 3.0 0.00 0.02 0.02 74 1019.9
20260902163454 88 130 1.0 2.0 0.00 0.02 0.02 76 1019.8
20260902162951 88 22 1.0 2.0 0.00 0.02 0.02 76 1019.8
20260902162446 88 137 0.0 1.0 0.00 0.02 0.02 78 1020.1
20260902161941 88 115 2.0 2.0 0.00 0.02 0.02 77 1019.8
20260902161436 88 110 2.0 2.0 0.00 0.02 0.02 78 1020.1
20260902160932 88 155 2.0 2.0 0.00 0.02 0.02 78 1020.2
20260902160427 87 107 1.0 1.0 0.00 0.02 0.02 79 1019.8
20260902155925 86 119 3.0 3.0 0.00 0.02 0.02 80 1020.1
20260902155421 87 120 2.0 3.0 0.00 0.02 0.02 79 1020.5
20260902154914 89 317 1.0 2.0 0.00 0.02 0.02 78 1020.5
20260902154410 88 118 1.0 2.0 0.00 0.02 0.02 77 1020.5
20260902153903 88 141 2.0 3.0 0.00 0.02 0.02 79 1020.8
20260902153403 86 137 1.0 2.0 0.00 0.02 0.02 80 1020.5
20260902152858 86 117 1.0 1.0 0.00 0.02 0.02 82 1020.8
20260902152354 86 100 1.0 2.0 0.00 0.02 0.02 81 1020.9
20260902151850 86 107 1.0 1.0 0.00 0.02 0.02 80 1021.1
20260902151345 87 151 0.0 1.0 0.00 0.02 0.02 80 1021.0
20260902150839 87 326 4.0 6.0 0.00 0.02 0.02 79 1020.9
20260902150336 87 136 1.0 1.0 0.00 0.02 0.02 79 1021.1
20260902145835 87 150 0.0 1.0 0.00 0.02 0.02 80 1020.8
20260902145330 86 299 2.0 2.0 0.00 0.02 0.02 79 1021.0
20260902144826 86 76 2.0 2.0 0.00 0.02 0.02 80 1020.8
20260902144321 86 146 1.0 1.0 0.00 0.02 0.02 83 1020.6
20260902143816 84 150 0.0 1.0 0.00 0.02 0.02 84 1020.7
20260902143311 84 170 0.0 1.0 0.00 0.02 0.02 86 1020.9
20260902142807 85 122 1.0 1.0 0.00 0.02 0.02 86 1020.7
20260902142306 85 123 0.0 0.0 0.07 0.02 0.02 86 1020.4
20260902141803 85 170 1.0 1.0 0.07 0.02 0.02 84 1020.9
20260902141258 85 105 2.0 2.0 0.00 0.01 0.01 83 1020.6
20260902140752 86 148 0.0 0.0 0.00 0.01 0.01 82 1020.8
20260902140248 86 144 0.0 1.0 0.00 0.01 0.01 81 1020.5
20260902135747 85 146 0.0 1.0 0.00 0.01 0.01 84 1020.5
20260902135243 85 135 0.0 1.0 0.00 0.01 0.01 83 1020.4
20260902134742 86 132 1.0 1.0 0.00 0.01 0.01 82 1020.7
20260902134238 86 122 0.0 1.0 0.00 0.01 0.01 82 1020.5
20260902133733 85 91 2.0 2.0 0.00 0.01 0.01 83 1020.5
20260902133232 84 176 1.0 2.0 0.00 0.01 0.01 86 1020.4
20260902132727 83 151 0.0 0.0 0.00 0.01 0.01 91 1020.4
20260902132223 81 144 0.0 1.0 0.00 0.01 0.01 93 1020.4
20260902131718 80 151 0.0 0.0 0.00 0.01 0.01 94 1020.5
20260902131214 79 151 0.0 0.0 0.00 0.01 0.01 94 1020.7
20260902130709 79 153 0.0 1.0 0.00 0.01 0.01 94 1020.7
20260902130205 80 161 0.0 0.0 0.00 0.01 0.01 95 1020.5
20260902125659 79 154 0.0 0.0 0.00 0.01 0.01 95 1020.4
20260902125156 79 153 0.0 1.0 0.07 0.01 0.01 95 1020.4
20260902124652 79 67 1.0 2.0 0.07 0.01 0.01 95 1020.6
20260902124152 79 121 1.0 2.0 0.00 0.00 0.00 95 1020.5
20260902123647 79 141 0.0 0.0 0.00 0.00 0.00 96 1020.5
20260902123142 79 161 0.0 0.0 0.00 0.00 0.00 96 1020.4
20260902122636 79 158 0.0 0.0 0.00 0.00 0.00 96 1020.4
20260902122132 79 154 0.0 0.0 0.00 0.00 0.00 96 1020.1
20260902121627 78 157 0.0 0.0 0.00 0.00 0.00 96 1020.4
20260902121122 78 156 0.0 0.0 0.00 0.00 0.00 96 1020.3
20260902120618 78 163 0.0 0.0 0.00 0.00 0.00 96 1020.2
20260902120114 78 154 0.0 0.0 0.00 0.00 0.00 96 1020.1
20260902115609 78 166 0.0 0.0 0.00 0.00 0.00 96 1020.3
20260902115105 78 146 0.0 0.0 0.00 0.00 0.00 96 1020.2
20260902114601 78 156 0.0 0.0 0.00 0.00 0.00 96 1020.2
20260902114100 78 155 0.0 0.0 0.00 0.00 0.00 96 1020.1
20260902113556 78 155 0.0 0.0 0.00 0.00 0.00 96 1020.2
20260902113051 77 155 0.0 0.0 0.00 0.00 0.00 96 1020.0
20260902112546 77 155 0.0 0.0 0.00 0.00 0.00 96 1020.3
20260902112043 77 155 0.0 0.0 0.00 0.00 0.00 96 1020.1
20260902111539 77 155 0.0 0.0 0.00 0.00 0.00 96 1019.9
20260902111034 77 155 0.0 0.0 0.00 0.00 0.00 96 1020.0
20260902110530 77 155 0.0 0.0 0.00 0.00 0.00 96 1019.8
20260902110026 77 155 0.0 0.0 0.00 0.00 0.00 96 1020.0
20260902105525 78 155 0.0 0.0 0.00 0.00 0.00 96 1019.7
20260902105020 77 155 0.0 0.0 0.00 0.00 0.00 96 1020.0
20260902104516 77 155 0.0 0.0 0.00 0.00 0.00 96 1019.7
20260902104016 77 155 0.0 0.0 0.00 0.00 0.00 96 1019.7
20260902103511 77 155 0.0 0.0 0.00 0.00 0.00 96 1019.8
20260902103007 77 155 0.0 0.0 0.00 0.00 0.00 96 1019.9
20260902102503 77 155 0.0 0.0 0.00 0.00 0.00 96 1019.4
20260902101959 77 155 0.0 0.0 0.00 0.00 0.00 96 1019.6
20260902101454 77 155 0.0 0.0 0.00 0.00 0.00 96 1019.6
20260902100953 77 163 0.0 0.0 0.00 0.00 0.00 96 1019.6
20260902100448 78 163 0.0 0.0 0.00 0.00 0.00 96 1019.6
20260902095948 78 150 0.0 0.0 0.00 0.00 0.00 96 1019.6
20260902095442 78 150 0.0 0.0 0.00 0.00 0.00 96 1019.3
20260902094941 78 148 0.0 0.0 0.00 0.00 0.00 96 1019.4
20260902094437 78 163 0.0 0.0 0.00 0.00 0.00 96 1019.3
20260902093932 78 164 0.0 0.0 0.00 0.00 0.00 96 1019.2
20260902093427 77 164 0.0 0.0 0.00 0.00 0.00 96 1019.5
20260902092926 77 162 0.0 0.0 0.00 0.00 0.00 95 1019.2
20260902092417 77 162 0.0 0.0 0.00 0.00 0.00 95 1019.3
20260902091916 77 162 0.0 0.0 0.00 0.00 0.00 95 1019.3
20260902091412 77 161 0.0 0.0 0.00 0.00 0.00 95 1019.0
20260902090909 77 162 0.0 0.0 0.00 0.00 0.00 95 1019.1
20260902090408 77 162 0.0 0.0 0.00 0.00 0.00 95 1019.1
20260902085907 77 159 0.0 0.0 0.00 0.00 0.00 95 1019.2
20260902085403 77 159 0.0 0.0 0.00 0.00 0.00 95 1019.1
20260902084858 78 159 0.0 0.0 0.00 0.00 0.00 95 1018.8
20260902084354 77 159 0.0 0.0 0.00 0.00 0.00 95 1018.8
20260902083849 78 159 0.0 0.0 0.00 0.00 0.00 95 1018.9
20260902083349 78 159 0.0 0.0 0.00 0.00 0.00 95 1019.1
20260902082844 78 159 0.0 0.0 0.00 0.00 0.00 95 1019.0
20260902082340 78 159 0.0 0.0 0.00 0.00 0.00 95 1019.2
20260902081836 77 156 0.0 0.0 0.00 0.00 0.00 95 1018.9
20260902081332 78 156 0.0 0.0 0.00 0.00 0.00 95 1019.2
20260902080827 78 156 0.0 0.0 0.00 0.00 0.00 95 1019.0
20260902080324 78 156 0.0 0.0 0.00 0.00 0.00 95 1019.3
20260902075822 78 158 0.0 0.0 0.00 0.00 0.00 95 1019.2
20260902075319 78 147 0.0 0.0 0.00 0.00 0.00 95 1019.0
20260902074814 77 161 0.0 0.0 0.00 0.00 0.00 95 1019.1
20260902074310 78 161 0.0 0.0 0.00 0.00 0.00 95 1019.4
20260902073804 78 162 0.0 0.0 0.00 0.00 0.00 95 1019.2
20260902073300 78 149 0.0 0.0 0.00 0.00 0.00 95 1019.1
20260902072756 78 149 0.0 0.0 0.00 0.00 0.00 95 1019.1
20260902072251 78 149 0.0 0.0 0.00 0.00 0.00 95 1019.1
20260902071748 78 149 0.0 0.0 0.00 0.00 0.00 95 1019.1
20260902071243 77 149 0.0 0.0 0.00 0.00 0.00 95 1019.5
20260902070739 78 149 0.0 0.0 0.00 0.00 0.00 95 1019.3
20260902070239 78 149 0.0 0.0 0.00 0.00 0.00 95 1019.4
20260902065738 78 149 0.0 0.0 0.00 0.00 0.00 95 1019.2
20260902065233 78 149 0.0 0.0 0.00 0.00 0.00 95 1019.6
20260902064728 78 149 0.0 0.0 0.00 0.00 0.00 95 1019.3
20260902064224 78 149 0.0 0.0 0.00 0.00 0.00 95 1019.4
20260902063720 78 149 0.0 0.0 0.00 0.00 0.00 95 1019.4
20260902063214 78 149 0.0 0.0 0.00 0.00 0.00 95 1019.4
20260902062714 78 149 0.0 0.0 0.00 0.00 0.00 94 1019.5
20260902062209 78 149 0.0 0.0 0.00 0.00 0.00 94 1019.4
20260902061708 78 148 0.0 0.0 0.00 0.00 0.00 94 1019.5
20260902061203 78 148 0.0 0.0 0.00 0.00 0.00 94 1019.4
20260902060700 78 148 0.0 0.0 0.00 0.00 0.00 94 1019.5
20260902060155 78 148 0.0 0.0 0.00 0.00 0.00 94 1019.6
20260902055651 78 148 0.0 0.0 0.00 0.00 0.00 94 1019.5
20260902055147 78 161 0.0 0.0 0.00 0.00 0.00 94 1019.4
20260902054642 78 161 0.0 0.0 0.00 0.00 0.00 94 1019.5
20260902054137 78 161 0.0 0.0 0.00 0.00 0.00 94 1019.7
20260902053632 78 161 0.0 0.0 0.00 0.00 0.00 94 1019.7
20260902053127 78 161 0.0 0.0 0.00 0.00 0.00 94 1019.5
20260902052621 79 161 0.0 0.0 0.00 0.00 0.00 93 1019.3
20260902052117 79 161 0.0 0.0 0.00 0.00 0.00 93 1019.6
20260902051616 79 161 0.0 0.0 0.00 0.00 0.00 93 1019.6
20260902051115 79 161 0.0 0.0 0.00 0.00 0.00 93 1019.4
20260902050610 79 160 0.0 0.0 0.00 0.00 0.00 93 1019.5
20260902050105 79 159 0.0 0.0 0.00 0.00 0.00 93 1019.6
20260902045601 79 160 0.0 0.0 0.00 0.00 0.00 93 1019.8
20260902045056 79 160 0.0 0.0 0.00 0.00 0.00 93 1019.7
20260902044551 79 160 0.0 0.0 0.00 0.00 0.00 93 1019.7
20260902044046 79 157 0.0 0.0 0.00 0.00 0.00 93 1019.6
20260902043542 80 155 0.0 0.0 0.00 0.00 0.00 92 1019.6
20260902043037 80 155 0.0 0.0 0.00 0.00 0.00 92 1019.9
20260902042536 80 146 0.0 0.0 0.00 0.00 0.00 93 1019.8
20260902042031 80 154 0.0 0.0 0.00 0.00 0.00 92 1019.8
20260902041526 80 149 0.0 0.0 0.00 0.00 0.00 92 1019.8
20260902041021 80 165 0.0 0.0 0.00 0.00 0.00 92 1019.8
20260902040521 80 165 0.0 0.0 0.00 0.00 0.00 92 1020.0
20260902040021 80 154 0.0 0.0 0.00 0.00 0.00 92 1020.2
20260902035514 80 159 0.0 0.0 0.00 0.00 0.00 92 1020.0
20260902035009 80 155 0.0 0.0 0.00 0.00 0.00 92 1020.2
20260902034503 80 155 0.0 0.0 0.00 0.00 0.00 92 1020.1
20260902034003 80 155 0.0 0.0 0.00 0.00 0.00 92 1020.1
20260902033502 80 155 0.0 0.0 0.00 0.00 0.00 92 1020.2
20260902033001 80 155 0.0 0.0 0.00 0.00 0.00 92 1020.3
20260902032456 80 154 0.0 0.0 0.00 0.00 0.00 92 1020.2
20260902031951 80 153 0.0 0.0 0.00 0.00 0.00 92 1020.4
20260902031446 80 165 0.0 0.0 0.00 0.00 0.00 91 1020.2
20260902030942 80 165 0.0 0.0 0.00 0.00 0.00 91 1020.2
20260902030442 80 165 0.0 0.0 0.00 0.00 0.00 91 1020.4
20260902025940 80 165 0.0 0.0 0.00 0.00 0.00 91 1020.3
20260902025436 80 165 0.0 0.0 0.00 0.00 0.00 91 1020.5
20260902024931 80 165 0.0 0.0 0.00 0.00 0.00 91 1020.5
20260902024427 80 166 0.0 0.0 0.00 0.00 0.00 91 1020.6
20260902023921 80 166 0.0 0.0 0.00 0.00 0.00 91 1020.8
20260902023418 80 165 0.0 0.0 0.00 0.00 0.00 90 1020.9
20260902022916 80 159 0.0 0.0 0.00 0.00 0.00 90 1020.9
20260902022412 80 153 0.0 0.0 0.00 0.00 0.00 90 1020.8
20260902021908 80 153 0.0 0.0 0.00 0.00 0.00 90 1020.9
20260902021408 80 154 0.0 0.0 0.00 0.00 0.00 89 1020.6
20260902020903 80 154 0.0 0.0 0.00 0.00 0.00 89 1020.7
20260902020359 80 153 0.0 0.0 0.00 0.00 0.00 89 1020.8
20260902015854 80 161 0.0 0.0 0.00 0.00 0.00 89 1020.4
20260902015350 80 153 0.0 0.0 0.00 0.00 0.00 89 1020.3
20260902014846 80 148 0.0 0.0 0.00 0.00 0.00 89 1020.6
20260902014342 80 152 0.0 0.0 0.00 0.00 0.00 89 1020.4
20260902013841 80 151 0.0 0.0 0.00 0.00 0.00 89 1020.5
20260902013336 80 141 0.0 0.0 0.00 0.00 0.00 88 1020.5
20260902012832 80 151 0.0 0.0 0.00 0.00 0.00 88 1020.2
20260902012328 80 145 0.0 0.0 0.00 0.00 0.00 88 1020.0
20260902011823 81 145 0.0 0.0 0.00 0.00 0.00 88 1020.1
20260902011318 81 150 1.0 1.0 0.00 0.00 0.00 88 1019.9
20260902010817 81 154 0.0 0.0 0.00 0.00 0.00 88 1020.0
20260902010312 81 156 0.0 0.0 0.00 0.00 0.00 88 1020.3
20260902005811 81 156 0.0 0.0 0.00 0.00 0.00 88 1020.2
20260902005306 81 155 0.0 0.0 0.00 0.00 0.00 87 1019.8
20260902004801 81 158 0.0 0.0 0.00 0.00 0.00 87 1020.2
20260902004256 81 139 0.0 0.0 0.00 0.00 0.00 87 1020.3
20260902003751 81 156 0.0 0.0 0.00 0.00 0.00 87 1020.0
20260902003246 81 160 0.0 0.0 0.00 0.00 0.00 86 1019.9
20260902002742 81 169 0.0 0.0 0.00 0.00 0.00 86 1020.0
20260902002241 81 137 0.0 0.0 0.00 0.00 0.00 86 1019.9
20260902001737 81 148 0.0 0.0 0.00 0.00 0.00 85 1020.2
20260902001237 81 151 0.0 1.0 0.00 0.00 0.00 85 1019.9
20260902000731 81 153 0.0 0.0 0.00 0.00 0.00 85 1020.1
20260902000226 81 135 0.0 0.0 0.00 0.00 0.00 84 1020.0
20260901235721 81 147 0.0 0.0 0.00 0.00 0.00 84 1020.2
20260901235216 82 145 0.0 1.0 0.00 0.00 0.00 84 1020.3
20260901234716 82 143 0.0 0.0 0.00 0.00 0.00 84 1020.3
20260901234210 82 139 0.0 0.0 0.00 0.00 0.00 83 1020.1
20260901233710 82 150 0.0 0.0 0.00 0.00 0.00 83 1020.0
20260901233207 82 145 0.0 0.0 0.00 0.00 0.00 83 1020.1
20260901232701 82 136 0.0 0.0 0.00 0.00 0.00 83 1020.2
20260901232156 82 146 0.0 1.0 0.00 0.00 0.00 84 1020.1
20260901231653 83 138 0.0 0.0 0.00 0.00 0.00 83 1020.1
20260901231149 83 61 2.0 2.0 0.00 0.00 0.00 82 1020.0
20260901230644 83 131 1.0 1.0 0.00 0.00 0.00 82 1020.1
20260901230144 83 149 0.0 0.0 0.00 0.00 0.00 81 1020.0
20260901225639 84 131 0.0 0.0 0.00 0.00 0.00 81 1020.2
20260901225134 84 75 0.0 0.0 0.00 0.00 0.00 80 1020.3
20260901224630 84 136 2.0 2.0 0.00 0.00 0.00 79 1020.1
20260901224126 84 122 1.0 1.0 0.00 0.00 0.00 79 1020.1
20260901223621 85 58 2.0 2.0 0.00 0.00 0.00 80 1019.9
20260901223116 85 129 3.0 5.0 0.00 0.00 0.00 81 1019.6
20260901222612 85 160 3.0 5.0 0.00 0.00 0.00 80 1019.6
20260901222108 86 134 1.0 1.0 0.00 0.00 0.00 80 1019.7
20260901221604 86 131 1.0 2.0 0.00 0.00 0.00 80 1019.6
20260901221100 86 142 3.0 3.0 0.00 0.00 0.00 80 1019.3
20260901220558 85 118 1.0 1.0 0.00 0.00 0.00 81 1019.5
20260901220058 85 100 1.0 2.0 0.00 0.00 0.00 82 1019.6
20260901215556 86 72 3.0 5.0 0.00 0.00 0.00 80 1019.7
20260901215050 86 117 2.0 2.0 0.00 0.00 0.00 80 1019.7
20260901214549 87 258 4.0 8.0 0.00 0.00 0.00 78 1019.8
20260901214043 87 18 3.0 3.0 0.00 0.00 0.00 78 1019.5
20260901213537 87 112 1.0 1.0 0.00 0.00 0.00 78 1019.5
20260901213031 86 148 0.0 1.0 0.00 0.00 0.00 79 1019.9
20260901212526 85 129 2.0 3.0 0.00 0.00 0.00 81 1019.7
20260901212023 84 150 0.0 1.0 0.00 0.00 0.00 82 1019.8
20260901211518 84 120 0.0 0.0 0.00 0.00 0.00 82 1019.5